Regional Weather Roundup
Issued by NWS

Home | Current Version | Previous Version | Graphics & Text | Print | Product List | Glossary On
Versions: 1 2 3 4 5 6 7 8 9 10 11 12 13 14 15 16 17 18 19 20 21 22 23 24 25 26 27 28 29 30 31 32 33 34 35 36 37 38 39 40 41 42 43 44 45 46 47 48 49 50
826
ASUS43 KLSX 230807
RWRMO

WEATHER SUMMARY FOR MISSOURI
NATIONAL WEATHER SERVICE SPRINGFIELD MO
200 AM CST THU FEB 23 2017

NOTE: "FAIR" INDICATES FEW OR NO CLOUDS BELOW 12,000 FEET WITH NO
       SIGNIFICANT WEATHER AND/OR OBSTRUCTIONS TO VISIBILITY.
       CURRENT SKY AND/OR WEATHER CONDITIONS ARE NOT AVAILABLE FOR
       CHILLICOTHE AND FARMINGTON.

MOZ001>031-035>038-043-044-053-054-230900-
...NORTHERN AND WESTERN MISSOURI...

CITY           SKY/WX    TMP DP  RH WIND       PRES   REMARKS
KANSAS CTY INT PTCLDY    52  39  61 NE14      29.72F
KANSAS C DTWN  CLOUDY    55  39  54 NE12      29.72F
LEE`S SUMMIT   CLOUDY    54  40  59 NE9       29.71F
ST JOSEPH      PTCLDY    49  39  68 NE10      29.74F
CHILLICOTHE      N/A     51  41  68 N10       29.75S
KIRKSVILLE     CLEAR     49  41  74 N12       29.75R

$$
MOZ066>068-077>081-088>096-101>105-230900-
...SOUTHWEST MISSOURI...

CITY           SKY/WX    TMP DP  RH WIND       PRES   REMARKS
SPRINGFIELD    CLEAR     54  52  93 SE10      29.71F
JOPLIN         CLEAR     59  54  83 SE7       29.68F
BRANSON        CLEAR     54  54 100 SE7       29.73F FOG

$$
MOZ032>034-039>042-045>050-055>058-069>072-230900-
...CENTRAL MISSOURI...

CITY           SKY/WX    TMP DP  RH WIND       PRES   REMARKS
COLUMBIA       CLEAR     50  50 100 CALM      29.71S FOG
JEFFERSON CITY FOG       48  47  96 CALM      29.71S VSB 1
ROLLA          CLEAR     54  53  97 S13       29.71S
SEDALIA        CLOUDY    56  52  86 CALM      29.71S
WHITEMAN AFB   PTCLDY    51  47  85 N5        29.69S
OSAGE BEACH    PTCLDY    53  52  96 S3        29.72F

$$
MOZ051-052-059>065-230900-
...EAST CENTRAL MISSOURI...

CITY           SKY/WX    TMP DP  RH WIND       PRES   REMARKS
ST LOUIS INTL  CLEAR     59  52  77 S3        29.73S
SPIRIT OF STL  CLEAR     52  52 100 CALM      29.72S
ST CHARLES     FOG       49  49 100 CALM      29.72S VSB 1

$$
MOZ072>076-082>087-097>100-106>115-230900-
...SOUTH CENTRAL AND SOUTHEAST MISSOURI...

CITY           SKY/WX    TMP DP  RH WIND       PRES   REMARKS
CAPE GIRARDEAU PTCLDY    54  51  90 S5        29.78R
FARMINGTON     CLEAR     56  53  90 S6        29.77S
POPLAR BLUFF   PTCLDY    55  54  96 SW5       29.78S
WEST PLAINS    FOG       53  52  96 SW5       29.77F VSB 1/4

$$



USA.gov is the U.S. government's official web portal to all federal, state and local government web resources and services.